SHT5P EGAC-EGLL

Flight info

Callsign SHT5P
Flight time N/A
Altitude 33000
Route DUFFY L10 RINGA Q39 BABGU DCT ETIGA DCT INKOB Q39 NOMSU UQ4 WAL UY53 NUGRA
Aircraft A320/M-SDE3FGHIRWY/LB1

Departure

Time 2026-05-05 19:26
Airport George Best Belfast City Airport (EGAC)

Arrival

Time N/A
Airport London Heathrow Airport (EGLL)
Time Latitude Longitude Altitude Speed Heading
2026-05-05 18:47 54.61463 -5.87188 22 ft 0 kts 156°
2026-05-05 19:18 54.61464 -5.87190 21 ft 2 kts 156°
2026-05-05 19:19 54.61485 -5.87207 21 ft 1 kts 155°
2026-05-05 19:19 54.61508 -5.87221 22 ft 4 kts 174°
2026-05-05 19:19 54.61534 -5.87217 23 ft 4 kts 204°
2026-05-05 19:19 54.61547 -5.87204 26 ft 1 kts 215°
2026-05-05 19:20 54.61549 -5.87202 24 ft 0 kts 215°
2026-05-05 19:22 54.61543 -5.87209 26 ft 2 kts 215°
2026-05-05 19:23 54.61519 -5.87238 24 ft 6 kts 215°
2026-05-05 19:23 54.61472 -5.87297 22 ft 10 kts 215°
2026-05-05 19:23 54.61415 -5.87376 21 ft 12 kts 229°
2026-05-05 19:23 54.61347 -5.87491 20 ft 16 kts 215°
2026-05-05 19:24 54.61246 -5.87613 17 ft 17 kts 215°
2026-05-05 19:24 54.61161 -5.87714 16 ft 14 kts 214°
2026-05-05 19:24 54.61101 -5.87784 19 ft 8 kts 215°
2026-05-05 19:24 54.61084 -5.87892 18 ft 13 kts 285°
2026-05-05 19:25 54.61129 -5.88010 18 ft 8 kts 320°
2026-05-05 19:25 54.61179 -5.88010 20 ft 5 kts 35°
2026-05-05 19:25 54.61182 -5.88005 19 ft 0 kts 37°
2026-05-05 19:26 54.61252 -5.87918 16 ft 46 kts 35°
2026-05-05 19:26 54.61728 -5.87349 20 ft 115 kts 35°
2026-05-05 19:26 54.62525 -5.86421 214 ft 149 kts 33°
2026-05-05 19:26 54.63371 -5.85395 948 ft 149 kts 31°
2026-05-05 19:27 54.64221 -5.84373 1576 ft 155 kts 31°
2026-05-05 19:27 54.64906 -5.82761 1859 ft 188 kts 73°
2026-05-05 19:27 54.64663 -5.80380 2161 ft 225 kts 120°
2026-05-05 19:27 54.63383 -5.78613 2639 ft 254 kts 160°
2026-05-05 19:28 54.61579 -5.78524 3317 ft 269 kts 199°
2026-05-05 19:28 54.59951 -5.80086 4320 ft 269 kts 214°
2026-05-05 19:28 54.58300 -5.81654 5312 ft 273 kts 206°
2026-05-05 19:28 54.56506 -5.82764 6248 ft 279 kts 189°
2026-05-05 19:29 54.54558 -5.82600 7058 ft 285 kts 162°
2026-05-05 19:29 54.52818 -5.80984 7905 ft 289 kts 137°
2026-05-05 19:29 54.51413 -5.78487 8765 ft 292 kts 131°
2026-05-05 19:29 54.50033 -5.75879 9625 ft 297 kts 133°
2026-05-05 19:30 54.48618 -5.73240 10384 ft 305 kts 133°
2026-05-05 19:30 54.47115 -5.70459 10636 ft 329 kts 133°
2026-05-05 19:30 54.45500 -5.67492 10941 ft 349 kts 133°
2026-05-05 19:30 54.43824 -5.64414 11589 ft 355 kts 134°
2026-05-05 19:31 54.42120 -5.61293 12295 ft 360 kts 134°
2026-05-05 19:31 54.40406 -5.58125 13013 ft 365 kts 131°
2026-05-05 19:31 54.38854 -5.54634 13728 ft 370 kts 126°
2026-05-05 19:31 54.37369 -5.50985 14395 ft 375 kts 125°
2026-05-05 19:32 54.35876 -5.47304 15087 ft 378 kts 126°
2026-05-05 19:32 54.34390 -5.43644 15763 ft 380 kts 126°
2026-05-05 19:32 54.32851 -5.39852 16415 ft 384 kts 126°
2026-05-05 19:32 54.31335 -5.36136 17041 ft 388 kts 126°
2026-05-05 19:33 54.29784 -5.32336 17683 ft 391 kts 126°
2026-05-05 19:33 54.28219 -5.28497 18310 ft 395 kts 126°
2026-05-05 19:33 54.26549 -5.24749 18868 ft 398 kts 131°
2026-05-05 19:33 54.24762 -5.21106 19462 ft 401 kts 131°
2026-05-05 19:34 54.22975 -5.17419 20070 ft 404 kts 130°
2026-05-05 19:34 54.21183 -5.13693 20683 ft 407 kts 130°
2026-05-05 19:34 54.19382 -5.09936 21277 ft 411 kts 130°
2026-05-05 19:35 54.15721 -5.02355 22432 ft 417 kts 131°
2026-05-05 19:35 54.13865 -4.98532 22973 ft 420 kts 131°
2026-05-05 19:35 54.11995 -4.94664 23544 ft 423 kts 131°
2026-05-05 19:35 54.10112 -4.90785 24022 ft 427 kts 131°
2026-05-05 19:36 54.08215 -4.86879 24497 ft 430 kts 131°
2026-05-05 19:36 54.06300 -4.82952 24975 ft 432 kts 131°
2026-05-05 19:36 54.04375 -4.79002 25449 ft 435 kts 131°
2026-05-05 19:36 54.02523 -4.74902 25927 ft 439 kts 128°
2026-05-05 19:37 54.00689 -4.70731 26390 ft 441 kts 128°
2026-05-05 19:37 53.98832 -4.66558 26865 ft 444 kts 129°
2026-05-05 19:37 53.96963 -4.62356 27331 ft 447 kts 128°
2026-05-05 19:37 53.95085 -4.58126 27795 ft 450 kts 129°
2026-05-05 19:38 53.93180 -4.53890 28267 ft 453 kts 129°
2026-05-05 19:38 53.91267 -4.49632 28719 ft 456 kts 129°
2026-05-05 19:38 53.89340 -4.45344 29137 ft 458 kts 129°
2026-05-05 19:38 53.87400 -4.41041 29570 ft 461 kts 129°
2026-05-05 19:39 53.85532 -4.36612 29949 ft 464 kts 126°
2026-05-05 19:39 53.83743 -4.32157 30444 ft 462 kts 126°
2026-05-05 19:39 53.81922 -4.27683 30945 ft 461 kts 126°
2026-05-05 19:39 53.80093 -4.23234 31437 ft 460 kts 126°
2026-05-05 19:40 53.78275 -4.18800 31939 ft 459 kts 126°
2026-05-05 19:40 53.76456 -4.14370 32459 ft 458 kts 126°
2026-05-05 19:40 53.74641 -4.09959 32923 ft 458 kts 126°
2026-05-05 19:40 53.72816 -4.05556 33047 ft 457 kts 127°
2026-05-05 19:41 53.70995 -4.01170 33042 ft 455 kts 127°
2026-05-05 19:41 53.67379 -3.92412 33028 ft 455 kts 126°
2026-05-05 19:42 53.63748 -3.83677 33040 ft 455 kts 127°
2026-05-05 19:42 53.60105 -3.74975 33040 ft 455 kts 127°
2026-05-05 19:43 53.56465 -3.66280 33043 ft 454 kts 127°
2026-05-05 19:43 53.52812 -3.57609 33043 ft 454 kts 127°
2026-05-05 19:44 53.49158 -3.48946 33044 ft 454 kts 127°
2026-05-05 19:44 53.45898 -3.39861 33046 ft 457 kts 115°
2026-05-05 19:45 53.43425 -3.30030 33051 ft 457 kts 114°
2026-05-05 19:45 53.40924 -3.20230 33052 ft 457 kts 115°
2026-05-05 19:46 53.38025 -3.10813 33054 ft 454 kts 127°
2026-05-05 19:46 53.34268 -3.02331 33061 ft 453 kts 129°
2026-05-05 19:47 53.30519 -2.93948 33070 ft 453 kts 128°
2026-05-05 19:47 53.26743 -2.85523 33070 ft 453 kts 129°
2026-05-05 19:48 53.22968 -2.77108 33047 ft 453 kts 129°
2026-05-05 19:48 53.19826 -2.70127 33045 ft 452 kts 128°
2026-05-05 19:49 53.16043 -2.61763 33046 ft 452 kts 128°
2026-05-05 19:49 53.12322 -2.53330 33043 ft 452 kts 124°
2026-05-05 19:50 53.08815 -2.44663 33050 ft 451 kts 125°
2026-05-05 19:50 53.05278 -2.36053 33049 ft 451 kts 126°
2026-05-05 19:51 53.01060 -2.28462 33040 ft 447 kts 144°
2026-05-05 19:51 52.95834 -2.22889 33024 ft 447 kts 149°
2026-05-05 19:52 52.90568 -2.17383 33009 ft 448 kts 148°
2026-05-05 19:52 52.85288 -2.11869 33018 ft 449 kts 149°
2026-05-05 19:52 52.82645 -2.09128 32851 ft 449 kts 149°
2026-05-05 19:53 52.80001 -2.06371 32578 ft 449 kts 148°
2026-05-05 19:53 52.77373 -2.03628 32319 ft 447 kts 148°
2026-05-05 19:53 52.74742 -2.00890 31656 ft 447 kts 148°
2026-05-05 19:53 52.72093 -1.98148 30839 ft 450 kts 150°
2026-05-05 19:54 52.69458 -1.95427 30374 ft 444 kts 150°
2026-05-05 19:54 52.66853 -1.92740 29802 ft 439 kts 150°
2026-05-05 19:54 52.64313 -1.90114 29250 ft 433 kts 150°
2026-05-05 19:54 52.61747 -1.87472 28742 ft 427 kts 150°
2026-05-05 19:55 52.59242 -1.84901 28215 ft 421 kts 150°
2026-05-05 19:55 52.56777 -1.82364 27694 ft 416 kts 150°
2026-05-05 19:55 52.54332 -1.79851 27172 ft 412 kts 150°
2026-05-05 19:55 52.51905 -1.77372 26653 ft 409 kts 150°
2026-05-05 19:56 52.49501 -1.74911 26125 ft 406 kts 150°
2026-05-05 19:56 52.47115 -1.72470 25622 ft 403 kts 150°
2026-05-05 19:56 52.44733 -1.70047 25098 ft 401 kts 150°
2026-05-05 19:56 52.42400 -1.67663 24599 ft 400 kts 150°
2026-05-05 19:57 52.40015 -1.65229 24107 ft 398 kts 150°
2026-05-05 19:57 52.37667 -1.62838 23594 ft 397 kts 150°
2026-05-05 19:57 52.35354 -1.60483 23022 ft 396 kts 150°
2026-05-05 19:57 52.33029 -1.58115 22527 ft 392 kts 150°
2026-05-05 19:58 52.30717 -1.55776 22019 ft 389 kts 150°
2026-05-05 19:58 52.28422 -1.53465 21509 ft 386 kts 150°
2026-05-05 19:58 52.26114 -1.51134 21005 ft 383 kts 150°
2026-05-05 19:58 52.23884 -1.48892 20504 ft 381 kts 150°
2026-05-05 19:59 52.21660 -1.46567 20008 ft 379 kts 145°
2026-05-05 19:59 52.19636 -1.43848 19633 ft 376 kts 140°
2026-05-05 19:59 52.17667 -1.41070 19265 ft 373 kts 140°
2026-05-05 19:59 52.15706 -1.38320 18877 ft 371 kts 140°
2026-05-05 20:00 52.13750 -1.35601 18499 ft 369 kts 141°
2026-05-05 20:00 52.11804 -1.32892 18094 ft 367 kts 141°
2026-05-05 20:00 52.09869 -1.30199 17716 ft 365 kts 140°
2026-05-05 20:00 52.07946 -1.27519 17338 ft 363 kts 140°
2026-05-05 20:01 52.06031 -1.24851 16968 ft 362 kts 141°
2026-05-05 20:01 52.04113 -1.22200 16600 ft 361 kts 141°
2026-05-05 20:01 52.02207 -1.19562 16196 ft 360 kts 141°
2026-05-05 20:01 52.00305 -1.16927 15827 ft 359 kts 141°
2026-05-05 20:02 51.98406 -1.14304 15462 ft 358 kts 141°
2026-05-05 20:02 51.96515 -1.11692 15102 ft 356 kts 140°
2026-05-05 20:02 51.94634 -1.09095 14682 ft 354 kts 141°
2026-05-05 20:02 51.92763 -1.06522 14214 ft 352 kts 141°
2026-05-05 20:03 51.90899 -1.03964 13751 ft 350 kts 141°
2026-05-05 20:03 51.89047 -1.01423 13254 ft 348 kts 141°
2026-05-05 20:03 51.87206 -0.98897 12865 ft 343 kts 141°
2026-05-05 20:03 51.85403 -0.96460 12593 ft 335 kts 143°
2026-05-05 20:04 51.83387 -0.94675 12220 ft 329 kts 160°
2026-05-05 20:04 51.81242 -0.93400 11797 ft 328 kts 161°
2026-05-05 20:04 51.79097 -0.92134 11352 ft 328 kts 161°
2026-05-05 20:04 51.76955 -0.90901 10975 ft 326 kts 161°
2026-05-05 20:05 51.74823 -0.89853 10602 ft 324 kts 165°
2026-05-05 20:05 51.72644 -0.88887 10050 ft 318 kts 165°
2026-05-05 20:05 51.70569 -0.87962 9756 ft 302 kts 165°
2026-05-05 20:05 51.68560 -0.87073 9203 ft 296 kts 165°
2026-05-05 20:06 51.66612 -0.86209 8618 ft 293 kts 165°
2026-05-05 20:06 51.64659 -0.85339 8040 ft 290 kts 165°
2026-05-05 20:06 51.62702 -0.84464 7470 ft 286 kts 164°
2026-05-05 20:06 51.60793 -0.83612 6914 ft 283 kts 164°
2026-05-05 20:07 51.58900 -0.82773 6353 ft 281 kts 164°
2026-05-05 20:07 51.57021 -0.81935 5783 ft 278 kts 163°